DeKalb, IL

2:06 AM CDT on June 23, 2017 (GMT -0500)
De Kalb Taylor Municipal

Weather History for KDKB - August, 2013

Change the Weather History Date:

Friday, August 30, 2013

  Actual Average (KARR) Record (KARR)
Temperature  
Mean Temperature 79 °F -  
Max Temperature 93 °F 77 °F 93 °F (2013)
Min Temperature 65 °F 55 °F 43 °F (2009)
Cooling Degree Days 14    
Growing Degree Days 29 (Base 50)    
Moisture  
Dew Point 72 °F    
Average Humidity 83    
Maximum Humidity 91    
Minimum Humidity 61    
Precipitation  
Precipitation 1.56 in - - ()
Sea Level Pressure  
Sea Level Pressure 29.90 in    
Wind  
Wind Speed 7 mph (SSW)    
Max Wind Speed 34 mph    
Max Gust Speed 43 mph    
Visibility 7 miles    
Events Rain , Thunderstorm    
Averages and records for this station are not official NWS values.
T = Trace of Precipitation, MM = Missing Value Source: NWS Daily Summary

Daily Weather History Graph

Daily Weather History Graph

Search for Another Location

Airport or City:

Trip Planner

Search our weather history database for the weather conditions in past years. The results will help you decide how hot, cold, wet, or windy it might be!

Date:

Astronomy

Aug. 30, 2013 Rise Set
Actual Time 6:18 AM CDT 7:31 PM CDT
Civil Twilight 5:49 AM CDT 7:59 PM CDT
Nautical Twilight 5:15 AM CDT 8:34 PM CDT
Astronomical Twilight 4:39 AM CDT 9:10 PM CDT
Moon 12:54 AM CDT (8/30) 3:49 PM CDT (8/30)
Length of Visible Light 14h 10m
Length of Day
13h 12m
Waning Crescent, 29% of the Moon is Illuminated
Aug 30
Waning Crescent
Sep 5
New
Sep 12
First Quarter
Sep 19
Full
Sep 26
Last Quarter

Hourly Weather History & Observations

Time (CDT) Temp. Heat Index Dew Point Humidity Pressure Visibility Wind Dir Wind Speed Gust Speed Precip Events Conditions
12:15 AM 70.2 °F - 67.1 °F 90% 30.01 in 5.0 mi South 3.5 mph - N/A   Clear
12:35 AM 70.5 °F - 67.3 °F 89% 30.01 in 5.0 mi Calm Calm - N/A   Clear
12:55 AM 70.2 °F - 67.1 °F 90% 30.00 in 5.0 mi South 3.5 mph - N/A   Clear
1:15 AM 68.9 °F - 65.8 °F 90% 30.00 in 5.0 mi South 5.8 mph - N/A   Clear
1:35 AM 69.3 °F - 66.2 °F 90% 29.99 in 5.0 mi SE 4.6 mph - N/A   Clear
1:55 AM 69.1 °F - 66.0 °F 90% 30.00 in 5.0 mi SSE 3.5 mph - N/A   Clear
2:15 AM 68.2 °F - 65.1 °F 90% 30.00 in 5.0 mi SSE 3.5 mph - N/A   Clear
2:35 AM 68.9 °F - 65.8 °F 90% 29.99 in 5.0 mi SSE 4.6 mph - N/A   Clear
2:55 AM 68.0 °F - 64.9 °F 90% 29.99 in 5.0 mi SSE 3.5 mph - N/A   Clear
3:15 AM 68.7 °F - 65.3 °F 89% 29.98 in 7.0 mi SSE 3.5 mph - N/A   Clear
3:35 AM 67.6 °F - 64.8 °F 90% 29.98 in 5.0 mi South 3.5 mph - N/A   Clear
3:55 AM 66.9 °F - 63.9 °F 90% 29.98 in 5.0 mi South 3.5 mph - N/A   Clear
4:15 AM 66.7 °F - 63.9 °F 90% 29.97 in 5.0 mi SSE 5.8 mph - N/A   Clear
4:35 AM 66.0 °F - 63.0 °F 90% 29.96 in 5.0 mi South 4.6 mph - N/A   Clear
4:55 AM 65.7 °F - 62.8 °F 90% 29.96 in 5.0 mi South 5.8 mph - N/A   Clear
5:15 AM 66.2 °F - 63.3 °F 90% 29.95 in 5.0 mi South 5.8 mph - N/A   Clear
5:35 AM 66.7 °F - 63.7 °F 90% 29.95 in 5.0 mi South 5.8 mph - N/A   Clear
5:55 AM 67.5 °F - 64.4 °F 90% 29.94 in 4.0 mi South 6.9 mph - N/A   Clear
6:15 AM 67.1 °F - 64.0 °F 90% 29.94 in 2.0 mi South 5.8 mph - N/A   Clear
6:35 AM 68.0 °F - 64.9 °F 90% 29.94 in 1.5 mi SSW 6.9 mph - N/A   Mist
6:55 AM 68.9 °F - 65.8 °F 90% 29.94 in 1.5 mi South 5.8 mph - N/A   Mist
7:15 AM 70.0 °F - 67.1 °F 91% 29.94 in 2.0 mi South 6.9 mph - N/A   Clear
7:35 AM 71.4 °F - 68.4 °F 90% 29.94 in 3.0 mi South 6.9 mph - N/A   Clear
7:55 AM 72.9 °F - 69.8 °F 90% 29.94 in 4.0 mi SSW 9.2 mph - N/A   Clear
8:55 AM 77.0 °F - 72.5 °F 86% 29.93 in 7.0 mi South 8.1 mph - N/A   Clear
9:15 AM 78.4 °F - 73.8 °F 85% 29.93 in 7.0 mi South 9.2 mph - N/A   Clear
9:35 AM 80.6 °F 86.4 °F 75.6 °F 85% 29.93 in 7.0 mi South 10.4 mph - N/A   Clear
9:55 AM 81.9 °F 89.5 °F 76.6 °F 84% 29.92 in 7.0 mi SSW 12.7 mph - N/A   Scattered Clouds
10:15 AM 82.6 °F 91.1 °F 77.0 °F 83% 29.92 in 7.0 mi SSW 15.0 mph - N/A   Clear
10:35 AM 83.5 °F 93.6 °F 77.9 °F 83% 29.92 in 7.0 mi SSW 11.5 mph - N/A   Clear
10:55 AM 84.9 °F 97.0 °F 78.4 °F 81% 29.91 in 7.0 mi SSW 10.4 mph - N/A   Clear
11:15 AM 85.6 °F 98.2 °F 78.4 °F 79% 29.91 in 7.0 mi SW 9.2 mph - N/A   Clear
11:35 AM 86.5 °F 100.4 °F 79.0 °F 78% 29.90 in 10.0 mi SSW 10.4 mph - N/A   Clear
11:55 AM 87.6 °F 102.6 °F 79.3 °F 76% 29.89 in 10.0 mi SSW 9.2 mph - N/A   Clear
12:15 PM 88.3 °F 104.2 °F 79.5 °F 75% 29.89 in 10.0 mi SSW 12.7 mph - N/A   Clear
12:35 PM 89.2 °F 106.3 °F 80.1 °F 74% 29.88 in 10.0 mi WSW 11.5 mph 16.1 mph N/A   Clear
12:55 PM 90.3 °F 109.1 °F 80.6 °F 73% 29.88 in 10.0 mi SW 8.1 mph - N/A   Clear
1:15 PM 90.3 °F 108.3 °F 80.1 °F 72% 29.87 in 10.0 mi WSW 10.4 mph - N/A   Clear
1:35 PM 90.9 °F 110.8 °F 81.0 °F 73% 29.87 in 10.0 mi WSW 12.7 mph 16.1 mph N/A   Clear
1:55 PM 91.2 °F 108.2 °F 79.2 °F 68% 29.87 in 10.0 mi WSW 12.7 mph - N/A   Clear
2:15 PM 91.9 °F 109.6 °F 79.7 °F 67% 29.86 in 10.0 mi SW 13.8 mph - N/A   Clear
2:35 PM 91.4 °F 108.0 °F 79.0 °F 67% 29.85 in 10.0 mi WSW 12.7 mph - N/A   Scattered Clouds
2:55 PM 93.0 °F 108.9 °F 78.4 °F 62% 29.84 in 10.0 mi SW 12.7 mph 17.3 mph N/A   Clear
3:15 PM 93.4 °F 109.2 °F 78.3 °F 61% 29.83 in 10.0 mi SW 9.2 mph - N/A   Clear
3:35 PM 93.0 °F 109.7 °F 79.0 °F 63% 29.84 in 10.0 mi SW 11.5 mph 18.4 mph N/A   Clear
3:55 PM 93.4 °F 112.4 °F 80.2 °F 65% 29.82 in 10.0 mi SW 11.5 mph - N/A   Clear
4:15 PM 93.2 °F 111.9 °F 79.7 °F 65% 29.82 in 10.0 mi SW 11.5 mph - N/A   Clear
4:35 PM 93.0 °F 111.3 °F 79.5 °F 65% 29.80 in 10.0 mi SSW 13.8 mph - N/A   Clear
4:55 PM 92.3 °F 108.4 °F 78.6 °F 64% 29.80 in 10.0 mi SSW 10.4 mph - N/A Thunderstorm Clear
5:15 PM 91.6 °F 107.0 °F 78.4 °F 65% 29.82 in 10.0 mi SSW 9.2 mph - N/A Thunderstorm Clear
5:35 PM 90.5 °F 104.7 °F 77.9 °F 66% 29.82 in 10.0 mi SSW 8.1 mph - N/A Thunderstorm Scattered Clouds
5:55 PM 80.6 °F 83.9 °F 70.0 °F 70% 29.88 in 10.0 mi NE 34.5 mph 42.6 mph N/A Thunderstorm Thunderstorm
6:15 PM 74.3 °F - 68.9 °F 83% 29.88 in 10.0 mi NE 25.3 mph 33.4 mph N/A Thunderstorm Thunderstorm
6:35 PM 72.0 °F - 68.0 °F 87% 29.88 in 4.0 mi NE 27.6 mph 35.7 mph 0.04 in Rain , Thunderstorm Heavy Thunderstorms and Rain
6:55 PM 70.0 °F - 66.9 °F 90% 29.87 in 0.5 mi NW 25.3 mph 38.0 mph 0.96 in Rain , Thunderstorm Heavy Thunderstorms and Rain
7:15 PM 71.1 °F - 67.8 °F 89% 29.89 in 1.5 mi East 3.5 mph - 0.54 in Rain , Thunderstorm Heavy Thunderstorms and Rain
7:35 PM 71.4 °F - 68.2 °F 89% 29.85 in 10.0 mi SSW 15.0 mph - 0.59 in Rain Light Rain
7:55 PM 73.0 °F - 69.8 °F 90% 29.85 in 10.0 mi West 15.0 mph - 0.60 in Rain , Thunderstorm Rain
8:15 PM 74.3 °F - 71.1 °F 90% 29.84 in 10.0 mi SW 10.4 mph - N/A Rain , Thunderstorm Light Thunderstorms and Rain
8:35 PM 73.8 °F - 70.5 °F 90% 29.85 in 10.0 mi SW 9.2 mph - N/A Thunderstorm Thunderstorm
8:55 PM 73.9 °F - 70.7 °F 90% 29.85 in 10.0 mi West 8.1 mph - N/A Thunderstorm Scattered Clouds
9:15 PM 75.7 °F - 72.7 °F 90% 29.87 in 10.0 mi West 6.9 mph - N/A Thunderstorm Thunderstorm
9:35 PM 75.2 °F - 72.0 °F 90% 29.86 in 10.0 mi Calm Calm - N/A   Scattered Clouds
9:55 PM 73.9 °F - 70.9 °F 90% 29.87 in 7.0 mi NW 3.5 mph - N/A Thunderstorm Clear
10:15 PM 73.6 °F - 70.7 °F 91% 29.87 in 7.0 mi North 3.5 mph - N/A   Clear
10:35 PM 73.0 °F - 70.0 °F 90% 29.88 in 10.0 mi NE 9.2 mph - N/A   Scattered Clouds
10:55 PM 73.0 °F - 70.0 °F 90% 29.88 in 10.0 mi ENE 5.8 mph - N/A   Clear
11:15 PM 72.0 °F - 68.9 °F 90% 29.88 in 10.0 mi ESE 5.8 mph - N/A   Clear
11:35 PM 71.6 °F - 68.7 °F 91% 29.87 in 10.0 mi ENE 8.1 mph - N/A   Clear
11:55 PM 70.7 °F - 67.8 °F 91% 29.87 in 10.0 mi ENE 8.1 mph - N/A   Clear